sat.trackr.live / text

‹ back to catalog

ONEWEB-0028

NORAD 45140 · 2020-008K

PAYLOAD ACTIVE UNKNOWN

§ Identity

Operator
Country
UK
Launch date
2020-02-06
Launch site
TYMSC
Launch vehicle
Mass (kg)
RCS (m²)

Purposes: comms

External: N2YO · Heavens-Above · Gunter

§ Orbital elements

Epoch: 2026-05-25T02:04:18.957792Z

Period
109.85 min
Inclination
87.8908°
Eccentricity
0.0002349
Mean motion
13.10853101 rev/d
Perigee alt
1,218.1 km
Apogee alt
1,221.6 km
Semi-major
7,598.0 km
B*
-1.4999e-3
RAAN
25.6711°
Arg perigee
76.9460°
Mean anomaly
283.1930°
Rev number
30,559

§ Raw data

ONEWEB-00281 45140U 20008K   26145.08633053 -.00000515  00000+0 -14999-2 0  99962 45140  87.8908  25.6711 0002349  76.9460 283.1930 13.10853101305599

JSON: /api/v1/satellites/45140 · /tle

For live sub-satellite position, see the globe view (requires WebGL).

§ Visibility from observer

Set your observer location to see the next 7 days of passes ≥ 10°. The values pass through the URL so the page stays shareable.

No JS? Fill the form by hand. The geolocation button needs JavaScript.